This is the latest recevied weather packets stored in our database for station/object CQ0XVC-11. If no packets are shown the sender has not sent any weather packets the latest 1 day(s).
| Time | Temp. | Humidity | Pressure | Rain* | Wind** | Luminosity | Snow |
|---|---|---|---|---|---|---|---|
| 1778073947 | 18.89° C | 27% | 999.2 hPa | 0 mm | - | - | - |
| 1778073644 | 18.33° C | 29% | 999.2 hPa | 0 mm | - | - | - |
| 1778073074 | 17.78° C | 30% | 999.3 hPa | 0 mm | - | - | - |
| 1778073040 | 17.78° C | 30% | 999.3 hPa | 0 mm | - | - | - |
| 1778072738 | 17.78° C | 30% | 999.5 hPa | 0 mm | - | - | - |
| 1778072134 | 17.78° C | 28% | 999.7 hPa | 0 mm | - | - | - |
| 1778071875 | 17.78° C | 28% | 999.6 hPa | 0 mm | - | - | - |
| 1778071227 | 17.78° C | 28% | 999.8 hPa | 0 mm | - | - | - |
| 1778070925 | 17.78° C | 28% | 999.6 hPa | 0 mm | - | - | - |
| 1778070321 | 17.22° C | 26% | 1000 hPa | 0 mm | - | - | - |
| 1778070018 | 17.22° C | 27% | 999.8 hPa | 0 mm | - | - | - |
| 1778069762 | 17.78° C | 28% | 999.9 hPa | 0 mm | - | - | - |
| 1778069478 | 17.78° C | 29% | 1000 hPa | 0 mm | - | - | - |
| 1778069414 | 17.78° C | 29% | 1000 hPa | 0 mm | - | - | - |
| 1778069112 | 17.78° C | 28% | 1000 hPa | 0 mm | - | - | - |
| 1778068884 | 17.22° C | 30% | 1000 hPa | 0 mm | - | - | - |
| 1778068205 | 17.78° C | 28% | 1000.3 hPa | 0 mm | - | - | - |
| 1778067601 | 17.78° C | 30% | 1000.3 hPa | 0 mm | - | - | - |
| 1778066730 | 17.22° C | 33% | 1000.5 hPa | 0 mm | - | - | - |
| 1778066392 | 17.22° C | 33% | 1000.5 hPa | 0 mm | - | - | - |
| 1778065788 | 17.22° C | 36% | 1000.5 hPa | 0 mm | - | - | - |
| 1778065486 | 16.67° C | 35% | 1000.4 hPa | 0 mm | - | - | - |
| 1778065183 | 16.67° C | 35% | 1000.7 hPa | 0 mm | - | - | - |
| 1778063673 | 16.67° C | 40% | 1000.7 hPa | 0 mm | - | - | - |
| 1778063409 | 16.11° C | 40% | 1000.8 hPa | 0 mm | - | - | - |
* Rain since midnight (hover to see other rain measurements)
** Current wind speed in m/s (hover to see current wind gust speed)